Torna al catalogo

STARLINK-35196

AttivoComunicazioniVLEO
NORAD 66007·PAYLOAD·🇺🇸 United States

Lanciato Oct 16, 2025 da Cape Canaveral Space Force Station

Loading…

Prossimi Passaggi (prossime 24 ore)

TLE

AggiornatoSource: CelesTrak SupGP

Epoca: Sep 15, 2026, 03:38 UTC

1 66007C 25232C   26258.15187500  .00019896  00000+0  58778-3 0  2581
2 66007  53.1573 302.3577 0001228  89.3050 303.4174 15.34383459    18

Traccia STARLINK-35196 in tempo reale con AllMySat

Download on the App Store